DW7413 Weather Reports


Display with metric or nautical units.
time (UTC)temp
F
wind
direction
speed
MPH
gust
MPH
rain 1hr
in
rain 24hr
in
rain mn
in
humidity
%
barometer
mb
20180217213349 65 152 2.0 7.0 0.00 0.00 0.00 36 1019.5
20180217212349 65 167 1.0 6.0 0.00 0.00 0.00 36 1019.6
20180217211349 65 115 2.0 5.0 0.00 0.00 0.00 36 1019.8
20180217210349 65 144 3.0 5.0 0.00 0.00 0.00 36 1020.0
20180217205349 64 161 1.0 7.0 0.00 0.00 0.00 37 1020.1
20180217204349 63 145 2.0 6.0 0.00 0.00 0.00 37 1020.3
20180217203349 64 161 1.0 6.0 0.00 0.00 0.00 38 1020.4
20180217202349 63 132 0.0 5.0 0.00 0.00 0.00 39 1020.5
20180217201349 63 153 2.0 7.0 0.00 0.00 0.00 39 1020.7
20180217200349 63 182 3.0 7.0 0.00 0.00 0.00 39 1020.8
20180217195349 63 175 1.0 6.0 0.00 0.00 0.00 38 1021.0
20180217194349 63 194 1.0 6.0 0.00 0.00 0.00 38 1021.1
20180217193349 63 186 1.0 4.0 0.00 0.00 0.00 39 1021.3
20180217192349 63 86 0.0 4.0 0.00 0.00 0.00 39 1021.4
20180217191349 63 200 2.0 4.0 0.00 0.00 0.00 40 1021.6
20180217190349 62 169 4.0 4.0 0.00 0.00 0.00 42 1021.6
20180217185349 61 168 1.0 4.0 0.00 0.00 0.00 42 1021.5
20180217184349 60 105 0.0 4.0 0.00 0.00 0.00 45 1021.5
20180217183349 59 160 2.0 3.0 0.00 0.00 0.00 45 1021.6
20180217182349 59 131 2.0 2.0 0.00 0.00 0.00 46 1021.7
20180217181349 58 159 1.0 3.0 0.00 0.00 0.00 47 1021.8
20180217180349 57 168 0.0 2.0 0.00 0.00 0.00 48 1021.8
20180217175349 56 163 1.0 3.0 0.00 0.00 0.00 49 1021.9
20180217174349 55 192 2.0 3.0 0.00 0.00 0.00 50 1021.8
20180217173349 54 200 0.0 4.0 0.00 0.00 0.00 50 1021.8
20180217172349 54 175 2.0 5.0 0.00 0.00 0.00 49 1021.8
20180217171349 54 180 2.0 5.0 0.00 0.00 0.00 48 1021.7
20180217170349 54 180 1.0 5.0 0.00 0.00 0.00 48 1021.6
20180217165349 54 190 2.0 7.0 0.00 0.00 0.00 48 1021.6
20180217164349 54 153 1.0 4.0 0.00 0.00 0.00 49 1021.5
20180217163349 53 140 0.0 3.0 0.00 0.00 0.00 50 1021.5
20180217162349 52 129 1.0 1.0 0.00 0.00 0.00 54 1021.4
20180217161349 49 96 0.0 0.0 0.00 0.00 0.00 57 1021.3
20180217160349 48 96 0.0 1.0 0.00 0.00 0.00 59 1021.2
20180217155349 46 96 0.0 1.0 0.00 0.00 0.00 61 1021.1
20180217154349 45 96 0.0 3.0 0.00 0.00 0.00 62 1021.1
20180217153349 45 24 0.0 0.0 0.00 0.00 0.00 64 1020.9
20180217152349 44 24 0.0 1.0 0.00 0.00 0.00 64 1020.8
20180217151349 44 355 0.0 0.0 0.00 0.00 0.00 65 1020.7
20180217150349 44 355 0.0 1.0 0.00 0.00 0.00 64 1020.7
20180217145349 44 355 0.0 0.0 0.00 0.00 0.00 64 1020.6
20180217144350 44 355 0.0 0.0 0.00 0.00 0.00 64 1020.7
20180217143349 44 355 0.0 0.0 0.00 0.00 0.00 63 1020.8
20180217142349 44 350 0.0 1.0 0.00 0.00 0.00 63 1020.9
20180217141349 44 350 0.0 0.0 0.00 0.00 0.00 64 1020.9
20180217140349 44 350 0.0 1.0 0.00 0.00 0.00 63 1021.0
20180217135349 44 350 0.0 0.0 0.00 0.00 0.00 64 1021.1
20180217134349 44 350 0.0 0.0 0.00 0.00 0.00 64 1021.1
20180217133349 44 350 0.0 0.0 0.00 0.00 0.00 64 1021.1
20180217132349 45 350 0.0 0.0 0.00 0.00 0.00 64 1021.0
20180217131349 45 350 0.0 0.0 0.00 0.00 0.00 64 1021.1
20180217130349 45 350 0.0 0.0 0.00 0.00 0.00 63 1021.1
20180217125349 45 350 0.0 0.0 0.00 0.00 0.00 63 1020.9
20180217124349 45 350 0.0 0.0 0.00 0.00 0.00 63 1020.9
20180217123349 45 350 0.0 0.0 0.00 0.00 0.00 63 1021.0
20180217122349 45 350 0.0 0.0 0.00 0.00 0.00 63 1021.1
20180217121349 45 350 0.0 0.0 0.00 0.00 0.00 63 1021.1
20180217120349 45 350 0.0 0.0 0.00 0.00 0.00 63 1021.1
20180217115349 45 350 0.0 0.0 0.00 0.00 0.00 63 1021.1
20180217114349 44 350 0.0 0.0 0.00 0.00 0.00 63 1021.3
20180217113349 44 350 0.0 0.0 0.00 0.00 0.00 63 1021.4
20180217112349 44 350 0.0 0.0 0.00 0.00 0.00 63 1021.4
20180217111349 44 350 0.0 1.0 0.00 0.00 0.00 63 1021.5
20180217110350 44 344 0.0 0.0 0.00 0.00 0.00 64 1021.6
20180217105350 44 344 0.0 0.0 0.00 0.00 0.00 64 1021.8
20180217104349 44 344 0.0 0.0 0.00 0.00 0.00 64 1021.8
20180217103349 44 344 0.0 0.0 0.00 0.00 0.00 64 1021.9
20180217102349 44 344 0.0 0.0 0.00 0.00 0.00 65 1022.0
20180217101349 44 344 0.0 0.0 0.00 0.00 0.00 65 1022.0
20180217100349 44 344 0.0 0.0 0.00 0.00 0.00 65 1022.1
20180217095350 44 344 0.0 0.0 0.00 0.00 0.00 65 1022.2
20180217094349 44 344 0.0 0.0 0.00 0.00 0.00 66 1022.2
20180217093349 44 344 0.0 0.0 0.00 0.00 0.00 66 1022.2
20180217092349 44 344 0.0 0.0 0.00 0.00 0.00 65 1022.2
20180217091349 44 344 0.0 0.0 0.00 0.00 0.00 64 1022.2
20180217090349 44 344 0.0 0.0 0.00 0.00 0.00 62 1022.3
20180217085349 44 344 0.0 0.0 0.00 0.00 0.00 61 1022.2
20180217084349 44 344 0.0 0.0 0.00 0.00 0.00 60 1022.2
20180217083350 44 344 0.0 0.0 0.00 0.00 0.00 60 1022.2
20180217082349 44 344 0.0 0.0 0.00 0.00 0.00 59 1022.2
20180217081349 45 344 0.0 0.0 0.00 0.00 0.00 58 1022.1
20180217080349 45 344 0.0 0.0 0.00 0.00 0.00 58 1022.1
20180217075350 45 344 0.0 0.0 0.00 0.00 0.00 57 1022.0
20180217074350 45 344 0.0 0.0 0.00 0.00 0.00 57 1021.9
20180217073350 45 344 0.0 0.0 0.00 0.00 0.00 56 1021.9
20180217072350 45 344 0.0 0.0 0.00 0.00 0.00 56 1021.9
20180217071349 45 344 0.0 0.0 0.00 0.00 0.00 56 1021.9
20180217070349 45 344 0.0 0.0 0.00 0.00 0.00 56 1021.8
20180217065349 46 344 0.0 0.0 0.00 0.00 0.00 55 1021.9
20180217064349 46 344 0.0 0.0 0.00 0.00 0.00 55 1021.9
20180217063349 46 344 0.0 0.0 0.00 0.00 0.00 54 1021.8
20180217062349 46 344 0.0 0.0 0.00 0.00 0.00 54 1021.7
20180217061349 47 344 0.0 0.0 0.00 0.00 0.00 54 1021.6
20180217060350 47 344 0.0 0.0 0.00 0.00 0.00 53 1021.5
20180217055349 47 344 0.0 0.0 0.00 0.00 0.00 53 1021.5
20180217054350 47 344 0.0 0.0 0.00 0.00 0.00 54 1021.4
20180217053349 47 344 0.0 0.0 0.00 0.00 0.00 53 1021.4
20180217052349 47 344 0.0 0.0 0.00 0.00 0.00 53 1021.5
20180217051349 47 344 0.0 0.0 0.00 0.00 0.00 53 1021.4
20180217050349 47 344 0.0 0.0 0.00 0.00 0.00 52 1021.4
20180217045349 47 344 0.0 0.0 0.00 0.00 0.00 53 1021.4
20180217044349 47 344 0.0 0.0 0.00 0.00 0.00 52 1021.4
20180217043350 48 344 0.0 0.0 0.00 0.00 0.00 52 1021.2
20180217042349 48 344 0.0 0.0 0.00 0.00 0.00 52 1021.2
20180217041350 48 344 0.0 0.0 0.00 0.00 0.00 52 1021.3
20180217040349 49 344 0.0 0.0 0.00 0.00 0.00 52 1021.1
20180217035349 49 344 0.0 0.0 0.00 0.00 0.00 52 1021.2
20180217034350 49 344 0.0 0.0 0.00 0.00 0.00 51 1021.1
20180217033349 50 344 0.0 0.0 0.00 0.00 0.00 50 1020.7
20180217032350 50 344 0.0 0.0 0.00 0.00 0.00 49 1020.7
20180217031349 50 344 0.0 0.0 0.00 0.00 0.00 48 1020.5
20180217030349 51 344 0.0 0.0 0.00 0.00 0.00 48 1020.6
20180217025350 51 344 0.0 1.0 0.00 0.00 0.00 47 1020.5
20180217024349 51 333 0.0 0.0 0.00 0.00 0.00 47 1020.8
20180217023350 52 333 0.0 1.0 0.00 0.00 0.00 46 1020.6
20180217022350 52 13 0.0 1.0 0.00 0.00 0.00 45 1020.6
20180217021350 53 13 0.0 1.0 0.00 0.00 0.00 45 1020.7
20180217020349 54 13 0.0 2.0 0.00 0.00 0.00 45 1020.9
20180217015349 54 360 0.0 1.0 0.00 0.00 0.00 44 1020.9
20180217014350 55 355 0.0 1.0 0.00 0.00 0.00 43 1020.7
20180217013350 56 322 0.0 2.0 0.00 0.00 0.00 42 1020.5
20180217012350 56 342 2.0 3.0 0.00 0.00 0.00 42 1020.7
20180217011349 57 355 0.0 2.0 0.00 0.00 0.00 42 1020.6
20180217010350 58 53 0.0 2.0 0.00 0.00 0.00 41 1020.7
20180217005350 58 36 0.0 2.0 0.00 0.00 0.00 40 1020.7
20180217004350 59 55 0.0 8.0 0.00 0.00 0.00 39 1020.9
20180217003350 60 302 0.0 3.0 0.00 0.00 0.00 38 1020.9
20180217002350 60 345 1.0 4.0 0.00 0.00 0.00 37 1021.0
20180217001350 61 121 0.0 2.0 0.00 0.00 0.00 36 1020.8
20180217000350 62 295 1.0 3.0 0.00 0.00 0.00 35 1020.8
20180216235350 62 32 1.0 2.0 0.00 0.00 0.00 34 1020.9
20180216234350 62 245 0.0 3.0 0.00 0.00 0.00 35 1021.1
20180216233350 61 172 0.0 6.0 0.00 0.00 0.00 36 1021.0
20180216232350 62 201 0.0 3.0 0.00 0.00 0.00 34 1020.9
20180216231350 62 252 1.0 4.0 0.00 0.00 0.00 34 1021.0
20180216230349 63 185 0.0 4.0 0.00 0.00 0.00 34 1021.0
20180216225350 64 304 0.0 2.0 0.00 0.00 0.00 35 1021.0
20180216224350 63 176 0.0 4.0 0.00 0.00 0.00 34 1021.2
20180216223350 64 331 1.0 3.0 0.00 0.00 0.00 32 1021.1
20180216222350 64 317 0.0 2.0 0.00 0.00 0.00 32 1021.3
20180216221350 63 222 0.0 4.0 0.00 0.00 0.00 33 1021.4
20180216220350 62 281 0.0 3.0 0.00 0.00 0.00 34 1021.5
20180216215350 62 226 0.0 3.0 0.00 0.00 0.00 33 1021.9
20180216214350 61 152 0.0 3.0 0.00 0.00 0.00 33 1022.0